Track SPACE STATION now! 10-day predictions The ISS Notification Tool HD Live streaming from Space Station SPACE STATION is classified as:
1 25544U 98067A 23161.05314815 .00013937 00000-0 24614-3 0 9993 2 25544 51.6422 3.8974 0005491 67.8121 67.8666 15.50633390400689